Location: São Paulo
(23.5507°S, 46.6334°W)
Time: 07:47:09
(UTC-03:00)

Explorer 7 - Pass Details

Date: 23 February 2026
Orbit: 430 x 541 km, 50.2° (Epoch: 10 March)

Event Time Altitude Azimuth Distance (km) Brightness Sun altitude
Rises 07:40:21 0° 208° (SSW) 2,567 10.0 22.2°
Reaches altitude 10° 07:42:52 10° 194° (SSW) 1,657 9.2 22.8°
Maximum altitude 07:45:58 24° 138° (SE) 1,004 9.0 23.5°
Drops below altitude 10° 07:48:57 10° 82° (E) 1,591 11.1 24.2°
Sets 07:51:18 0° 67° (ENE) 2,439 11.2 24.7°
